Miscellaneous Local Product
Issued by NWS Hastings, NE

Home | Current Version | Previous Version | Text Only | Print | Product List | Glossary Off
Versions: 1 2 3 4 5 6 7 8 9 10 11 12 13 14 15 16 17 18 19 20 21 22 23 24 25 26 27 28 29 30 31 32 33 34 35 36 37 38 39 40 41 42 43 44 45 46 47 48 49 50

000
AXUS43 KGID 212002
MISGRI

GID CWA HOURLY WEATHER ROUNDUP
NATIONAL WEATHER SERVICE HASTINGS NE
200 PM CST SAT JAN 21 2017

NOTE: "FAIR" INDICATES FEW OR NO CLOUDS BELOW 12,000 FEET WITH NO
SIGNIFICANT WEATHER AND/OR OBSTRUCTIONS TO VISIBILITY.

...SOUTH CENTRAL NEBRASKA...

CITY           SKY/WX    TMP DP  RH WIND       PRES   REMARKS
GRAND ISLAND   SUNNY     50  37  61 S8        29.43S
HASTINGS       SUNNY     49  38  65 VRB7      29.44F
KEARNEY        SUNNY    N/A N/A N/A MISG        N/A
ORD            SUNNY     50  33  52 CALM      29.41R
YORK           SUNNY     48  39  71 S10       29.44S
AURORA         SUNNY     50  38  64 S7        29.43S
LEXINGTON      SUNNY     47  36  66 CALM      29.42S
HOLDREGE       SUNNY     47  36  63 W3        29.42F
HEBRON         MOSUNNY   50  40  68 SW5       29.44F

...NEBRASKA PANHANDLE...

CITY           SKY/WX    TMP DP  RH WIND       PRES   REMARKS
CHADRON        SUNNY     36  27  69 NW5       29.42S WCI  32
ALLIANCE       SUNNY     44  27  51 W9        29.39F
SCOTTSBLUFF    SUNNY     42  27  55 CALM      29.40F
SIDNEY         CLOUDY    41  24  51 S7        29.40F

...WESTERN AND NORTH CENTRAL NEBRASKA...

CITY           SKY/WX    TMP DP  RH WIND       PRES   REMARKS
VALENTINE      CLOUDY    43  30  60 NW12      29.40S
AINSWORTH      CLOUDY    47  33  56 W10       29.39S
ONEILL         SUNNY     49  32  52 W12       29.40R
BROKEN BOW     SUNNY     48  36  63 CALM      29.40S
IMPERIAL       SUNNY     47  27  45 CALM      29.40F
NORTH PLATTE   SUNNY     47  31  53 W7        29.42S
MCCOOK         SUNNY     49  32  52 CALM      29.41F

...EASTERN NEBRASKA...

CITY           SKY/WX    TMP DP  RH WIND       PRES   REMARKS
NORFOLK        SUNNY     47  34  60 NW9       29.40R
SO SIOUX CITY  CLOUDY    44  38  79 NW7       29.41S
TEKAMAH        MOSUNNY   48  38  68 W10       29.42F
COLUMBUS       SUNNY     50  39  66 W8        29.43S
ALBION         SUNNY     48  18  30 W7        29.41R
OMAHA EPPLEY   MOSUNNY   50  38  63 S8        29.43S
OFFUTT AFB     SUNNY     51  42  72 SW10      29.43F
MILLARD        MOSUNNY   52  40  64 SW9       29.44S
LINCOLN        SUNNY     51  38  60 SW9       29.45F
NEBRASKA CITY  MOSUNNY   51  40  67 SW12      29.44F
BEATRICE       SUNNY     52  41  67 SW8       29.45F
FALLS CITY     SUNNY     53  40  61 SW7       29.44F

...NORTHERN KANSAS...

CITY           SKY/WX    TMP DP  RH WIND       PRES   REMARKS
GOODLAND       CLOUDY    46  34  62 E10       29.37F
HILL CITY      SUNNY     54  35  48 SE8       29.40F
NORTON         CLEAR     48  32  53 NW3       29.41F
PHILLIPSBURG   SUNNY     52  36  54 N5        29.42F
SMITH CENTER   SUNNY     50  37  62 CALM      29.43F
HAYS           SUNNY     53  35  50 SE6       29.41F
RUSSELL        SUNNY     53  37  54 E7        29.40F
CONCORDIA      SUNNY     52  39  61 VRB5      29.44F
SALINA         SUNNY     52  41  66 SE3       29.45F
TOPEKA         SUNNY     55  41  59 VRB6      29.46F



USA.gov is the U.S. government's official web portal to all federal, state and local government web resources and services.